Piloten Info

Wichtige Hinweise:

  • Neue Tower Frequenz 122,330 kHz - keine Landung ohne Funkkontakt
  • PPR Betrieb
  • Temporäre Hindernisse (Baukräne) nahe dem Flugplatz durch Bauarbeiten entlang der Nürnberger Straße (Östliche Seite).
  • Starts auf RWY 09 sind nicht gestattet. Start generell auf RWY 27. Bei Planung Rückenwinde berücksichtigen!
  • Bei Anflügen auf RWY 27 sind Hindernisse vorhanden, aus diesem Grund die versetzte Schwelle27!
  • Der Flugverein Neumarkt führt seine Starts generell auf RWY 27 und Landungen auf RWY09 durch.
  • Es besteht keine Tankmöglichkeit.

Diese Hinweis sind als Ergänzung / Hilfe zur regulären Flugplanung gedacht.

Auszüge aus AIP VFR ohne Gewähr - es gelten die offiziellen Veröffentlichungen.







METAR Informationen der nächstgelegenen Flughäfen


EDDN / Flughafen Nürnberg „Albrecht Dürer“

EDDN 211320Z 20007KT 170V230 9999 FEW022 FEW035CB SCT045TCU 22/17 Q1021 RETS BECMG 30010KT

ETIC / Fliegerhorst Grafenwöhr AAF

ETIC 211256Z AUTO 20006KT 9999 FEW042 SCT060 BKN090 BKN110 23/17 A3014 RMK AO2 SLP193 T02300165 $

ETIH / Fliegerhorst Hohenfels AAF

ETIH 211256Z AUTO 32010G16KT 9999 FEW050 SCT060 SCT070 25/18 A3017 RMK AO2 SLP200 T02500177 $